www.pogodaiklimat.ru

Погода и климат >> Архив погоды >> Пакистан >> Окара


ПОГОДА в Окаре

  • Прогноз погоды в Окаре
  • Монитор погоды в Окаре

АРХИВ ПОГОДЫ в Окаре

Время (UTC), дата Ветер
(напр.,м/с)
 
Видим.   Явления Облачность Т
(С)
Тd
(С)
f
(%)
Тe
(С)
Тes
(С)
Комфортность P
(гПа)
Po
(гПа)
Тmin
(С)
Tmax
(С)
R
(мм)
R24
(мм)
S
(см)
06 12.06 СВ 1 4000 м мгла ясно +39.0 +17.9 29 +42 +66 опасность
перегрева
997.5 977.9
09 12.06 штиль 0 4000 м пыль ясно +40.0 +17.3 27 +43 +67 опасность
перегрева
997.0 977.6
12 12.06 С 2 4000 м пыль ясно +39.0 +18.9 31 +43 +47 опасность
перегрева
995.8 976.2 +41.5
15 12.06 С 1 4000 м мгла ясно +36.0 +19.7 39 +42 +42 опасность
перегрева
996.7 977.1
18 12.06 штиль 0 4000 м мгла ясно +33.0 +19.5 45 +39 +39 очень
душно
998.7 978.7
21 12.06 штиль 0 4000 м дым ясно +30.0 +18.5 50 +35 +35 очень
душно
997.9 977.9
00 13.06 С 2 4000 м дым ясно +28.0 +18.8 57 +33 +33 очень
душно
998.2 977.8
03 13.06 С 2 4000 м дым ясно +31.0 +20.6 54 +38 +45 очень
душно
999.8 979.6 +27.0
06 13.06 штиль 0 4000 м ясно +37.0 +21.0 40 +44 +72 опасность
перегрева
1001.4 981.6
09 13.06 4000 м 4/0
[]
+40.0 +21.3 34 999.5 980.1
12 13.06 4000 м ясно +41.0 +18.8 28 997.8 978.4 +41.5
15 13.06 штиль 0 4000 м ясно +38.0 +20.4 36 +44 +44 опасность
перегрева
997.8 978.3
18 13.06 штиль 0 4000 м ясно +35.0 +20.2 42 +41 +41 опасность
перегрева
999.9 979.9
21 13.06 штиль 0 4000 м ясно +32.0 +19.1 46 +37 +37 очень
душно
999.1 979.2
00 14.06 штиль 0 4000 м дым ясно +27.0 +19.3 63 +33 +33 очень
душно
999.2 978.8
03 14.06 штиль 0 4000 м ясно +31.0 +18.8 48 +36 +46 очень
душно
1000.0 979.8 +26.0
06 14.06 штиль 0 4000 м ясно +37.0 +17.1 31 +40 +67 опасность
солнечного
удара
1001.1 981.3
09 14.06 штиль 0 4000 м ясно +42.0 +13.5 19 +42 +66 опасность
перегрева
998.9 979.6
12 14.06 штиль 0 4000 м ясно +42.0 +13.5 19 +42 +48 опасность
перегрева
996.6 977.2 +43.5
15 14.06 штиль 0 4000 м ясно +39.0 +15.7 25 +40 +40 очень
душно
996.1 976.7
18 14.06 штиль 0 4000 м ясно +35.0 +18.3 37 +39 +39 очень
душно
998.7 978.7
21 14.06 штиль 0 4000 м ясно +32.0 +18.2 44 +37 +37 очень
душно
997.7 977.8
00 15.06 штиль 0 4000 м ясно +30.0 +17.5 47 +34 +34 очень
душно
997.2 977.0
03 15.06 штиль 0 4000 м ясно +34.0 +18.9 41 +39 +49 очень
душно
998.0 978.0 +28.0
09 15.06 ЮЗ 3 4000 м ясно +42.0 +19.2 27 +46 +61 опасность
перегрева
997.2 977.9
12 15.06 ЮЗ 3 4000 м ясно +42.0 +20.2 29 +47 +51 опасность
перегрева
995.1 975.7 +43.5
15 15.06 штиль 0 4000 м 5/0
[Ac trans]
+39.0 +19.9 33 +44 +44 опасность
перегрева
995.8 976.4
18 15.06 ЮЗ 3 4000 м ясно +34.0 +18.9 41 +39 +39 очень
душно
998.1 978.1
21 15.06 ЮЗ 2 4000 м ясно +31.0 +16.9 43 +35 +35 очень
душно
997.4 977.4
00 16.06 штиль 0 4000 м дым {морось} 8/5 1200 м
[Sc As op]
+27.0 +21.0 70 +34 +34 очень
душно
998.8 978.4 0.0
03 16.06 Ю 3 4000 м дым ясно +30.0 +21.1 59 +38 +44 очень
душно
1000.4 980.2 +26.0
06 16.06 Ю 2 4000 м 4/0
[Ac trans]
+34.0 +20.8 46 +41 +56 опасность
перегрева
1001.5 981.5
12 16.06 штиль 0 4000 м ясно +39.0 +22.7 39 +48 +53 опасность
перегрева
998.9 978.9 +39.5
15 16.06 штиль 0 4000 м ясно +35.0 +22.0 47 +44 +44 опасность
перегрева
998.3 978.6
18 16.06 штиль 0 4000 м ясно +33.0 +22.1 53 +42 +42 опасность
перегрева
999.6 979.6
21 16.06 штиль 0 4000 м дым ясно +30.0 +21.1 59 +38 +38 очень
душно
999.1 979.0
00 17.06 штиль 0 4000 м дым ясно +28.0 +21.3 67 +35 +35 очень
душно
998.6 978.2
03 17.06 ЮЗ 1 4000 м ясно +32.0 +21.8 55 +41 +49 опасность
перегрева
999.5 979.3 +27.0
06 17.06 СВ 1 4000 м ясно +38.0 +23.1 43 +48 +72 опасность
перегрева
999.5 979.9
09 17.06 ЮЗ 1 4000 м 3/3 1200 м
[Sc]
+40.0 +21.3 34 +47 +61 опасность
перегрева
997.8 978.4
12 17.06 ЮЗ 1 4000 м 8/4 1200 м
[Sc Ac trans]
+39.5 +21.5 36 +47 +49 опасность
перегрева
997.0 977.4 +41.0
15 17.06 штиль 0 4000 м 4/4 1200 м
[Sc]
+37.5 +22.5 42 +46 +46 опасность
перегрева
997.0 977.5
18 17.06 СВ 2 4000 м 8/4 1200 м
[Sc Ac trans]
+29.0 +17.2 49 +33 +33 очень
душно
999.3 979.3
21 17.06 СВ 3 4000 м дым 4/4 1200 м
[Sc]
+26.0 +16.4 55 +29 +29 душно 1000.5 980.1
00 18.06 ЮВ 1 4000 м дым 4/4 1200 м
[Sc]
+25.0 +18.8 68 +30 +30 душно 999.8 979.2
03 18.06 ЮВ 1 4000 м 9/4 1200 м
[Sc Ac trans]
+26.0 +19.9 69 +32 +34 очень
душно
1001.7 981.1 +24.0
06 18.06 ЮВ 1 4000 м 4/4 1200 м
[Sc]
+21.4 +21.4 100 +27 +42 душно 1002.2 982.0
09 18.06 ЮВ 1 4000 м ясно +35.5 +20.9 43 +43 +63 опасность
перегрева
1000.0 980.3
12 18.06 штиль 0 4000 м ясно +36.0 +19.7 39 +42 +47 опасность
перегрева
998.6 978.8 +37.0
15 18.06 ЮВ 1 4000 м 8/4 1200 м
[Sc Ac trans]
+33.0 +23.0 56 +43 +43 опасность
перегрева
999.5 979.6
21 18.06 ЮВ 1 4000 м дым 9/4 1200 м
[Sc Ac trans]
+29.5 +23.0 68 +39 +39 очень
душно
1000.0 979.9
00 19.06 штиль 0 4000 м дым 4/4 1200 м
[Sc]
+28.0 +23.7 77 +38 +38 очень
душно
1000.1 979.7
03 19.06 штиль 0 4000 м ясно +30.0 +22.8 65 +40 +50 очень
душно
1001.6 981.4 +27.0

 

Местоположение метеостанции Окара (Пакистан): широта 30.80 долгота 73.43 высота над уровнем моря 180 м.

В архиве по умолчанию представлена погода в Окаре за последнюю неделю. Архивные данные за месяц целиком и за предыдущие месяцы, начиная с января 2011 года, Вы можете получить, выбрав интересующий диапазон дат из раскрывающегося списка и нажав кнопку "Ввод!".


*Определитесь, кто Вы:
робот инопланетянин человек

Внимание! Время в таблицах - всемирное. Для получения местного времени необходимо прибавить поправку, которая равна 5 ч.

Смотрите также архив погоды в соседних городах и на ближайших метеорологических станциях:

Погода в Сахивале (Пакистан) (42 км)
Погода в Фейсалабаде (Пакистан) (77 км)
Погода в Тоба Тек Сингх (Пакистан) (94 км)
Погода в Бахавалнагаре (Пакистан) (96 км)
Погода в Касуре (Пакистан) (105 км)
Погода в Шри-Ганганагаре (Раджастхан, Индия) (106 км)
Погода на Авиабазе Raifiqui (Пакистан) (118 км)
Погода в Джанге (Пакистан) (118 км)
Погода в Лахоре (Пакистан) (120 км)
Погода в Лахор аэропорту (Пакистан) (122 км)

Пояснения к столбцам:

Ветер - указаны скорость ветра в м/с - средняя за 10 мин, порывы в срок и между сроками (в фигурных скобках) и направление, откуда дует ветер: С - северный, СВ - северо-восточный, В - восточный, ЮВ - юго-восточный, Ю - южный, ЮЗ - юго-западный, З - западный, СЗ - северо-западный.
Видимость - горизонтальная дальность видимости в метрах или километрах. При видимости от 1 до 10 км при отсутствии осадков обычно наблюдается дымка, при ухудшении видимости до 1 км и менее - туман. В сухую погоду видимость может ухудшаться дымом, пылью или мглою.
Явления - указаны атмосферные явления, наблюдавшиеся в срок или в последний час перед сроком; фигурными скобками обозначены явления, наблюдавшиеся между сроками (за 1-3 часа до срока); квадратными скобками обозначены град или гололедные отложения с указанием их диаметра в мм.
Облачность - указаны через наклонную черту общая и нижняя облачность в баллах и высота нижней границы облаков в метрах; квадратными скобками обозначены формы облаков: Ci - перистые, Cs - перисто-слоистые, Cc - перисто-кучевые, Ac - высококучевые, As - высокослоистые, Sc - слоисто-кучевые, Ns - слоисто-дождевые, Cu - кучевые, Cb - кучево-дождевые. Подробнее классификацию облаков см. в Атласе облаков (PDF).
T - Температура воздуха - температура, измеренная на высоте 2 м над землей.
Td - Температура точки росы - температура, при понижении до которой содержащийся в воздухе водяной пар достигнет насыщения.
f - Относительная влажность воздуха - влажноcть воздуха, измеренная на высоте 2 м над землей.
Te - Эффективная температура - температура, которую ощущает одетый по сезону человек в тени. Характеристика душности погоды. При расчете учитывается влияние влажности воздуха и скорости ветра на теплоощущения человека.
Tes - Эффективная температура на солнце - температура, которую ощущает человек, с поправкой на солнечный нагрев. Характеристика знойности погоды. Зависит от высоты солнца над горизонтом, облачности и скорости ветра. Ночью, в пасмурную погоду, а также при ветре 12 м/с и более поправка равна нулю.
P - Атмосферное давление - приведенное к уровню моря атмосферное давление.
Po - Атмосферное давление - измеренное на уровне метеостанции атмосферное давление.
Tmin - Минимальная температура - минимум температуры воздуха на высоте 2 м над землей.
Tmax - Максимальная температура - максимум температуры воздуха на высоте 2 м над землей.
R - Количество осадков - Количество выпавших осадков за период времени, мм. При наведении курсора мыши на число - период времени, за который выпало указанное количество осадков.
R24 - Количество осадков - Количество выпавших осадков за 24 часа, мм.
S - Снежный покров - Высота снежного покрова, см. При наведении курсора мыши на число - состояние снежного покрова и степень покрытия местности в баллах.